Year,Month,Day,Hour,Minute,Value (Times are PST for temperature in C)
2012,07,06,00,00,12.90
2012,07,06,00,01,13.00
2012,07,06,00,02,13.00
2012,07,06,00,03,13.00
2012,07,06,00,04,13.00
2012,07,06,00,05,13.00
2012,07,06,00,06,13.00
2012,07,06,00,07,12.90
2012,07,06,00,08,12.90
2012,07,06,00,09,12.90
2012,07,06,00,10,12.90
2012,07,06,00,11,12.90
2012,07,06,00,12,12.90
2012,07,06,00,13,12.90
2012,07,06,00,14,12.90
2012,07,06,00,15,12.90
2012,07,06,00,16,12.90
2012,07,06,00,17,12.90
2012,07,06,00,18,12.90
2012,07,06,00,19,12.90
2012,07,06,00,20,12.80
2012,07,06,00,21,12.80
2012,07,06,00,22,12.80
2012,07,06,00,23,12.80
2012,07,06,00,24,12.80
2012,07,06,00,25,12.80
2012,07,06,00,26,12.70
2012,07,06,00,27,12.70
2012,07,06,00,28,12.70
2012,07,06,00,29,12.70
2012,07,06,00,30,12.70
2012,07,06,00,31,12.70
2012,07,06,00,32,12.70
2012,07,06,00,33,12.70
2012,07,06,00,34,12.70
2012,07,06,00,35,12.70
2012,07,06,00,36,12.70
2012,07,06,00,37,12.70
2012,07,06,00,38,12.70
2012,07,06,00,39,12.70
2012,07,06,00,40,12.70
2012,07,06,00,41,12.70
2012,07,06,00,42,12.70
2012,07,06,00,43,12.70
2012,07,06,00,44,12.70
2012,07,06,00,45,12.70
2012,07,06,00,46,12.70
2012,07,06,00,47,12.70
2012,07,06,00,48,12.70
2012,07,06,00,49,12.70
2012,07,06,00,50,12.70
2012,07,06,00,51,12.70
2012,07,06,00,52,12.70
2012,07,06,00,53,12.70
2012,07,06,00,54,12.70
2012,07,06,00,55,12.60
2012,07,06,00,56,12.60
2012,07,06,00,57,12.60
2012,07,06,00,58,12.60
2012,07,06,00,59,12.60
2012,07,06,01,00,12.60
2012,07,06,01,01,12.60
2012,07,06,01,02,12.60
2012,07,06,01,03,12.60
2012,07,06,01,04,12.50
2012,07,06,01,05,12.50
2012,07,06,01,06,12.50
2012,07,06,01,07,12.40
2012,07,06,01,08,12.40
2012,07,06,01,09,12.40
2012,07,06,01,10,12.40
2012,07,06,01,11,12.40
2012,07,06,01,12,12.40
2012,07,06,01,13,12.40
2012,07,06,01,14,12.40
2012,07,06,01,15,12.40
2012,07,06,01,16,12.40
2012,07,06,01,17,12.40
2012,07,06,01,18,12.40
2012,07,06,01,19,12.40
2012,07,06,01,20,12.40
2012,07,06,01,21,12.40
2012,07,06,01,22,12.40
2012,07,06,01,23,12.40
2012,07,06,01,24,12.40
2012,07,06,01,25,12.50
2012,07,06,01,26,12.50
2012,07,06,01,27,12.40
2012,07,06,01,28,12.50
2012,07,06,01,29,12.50
2012,07,06,01,30,12.50
2012,07,06,01,31,12.50
2012,07,06,01,32,12.50
2012,07,06,01,33,12.50
2012,07,06,01,34,12.50
2012,07,06,01,35,12.50
2012,07,06,01,36,12.50
2012,07,06,01,37,12.50
2012,07,06,01,38,12.50
2012,07,06,01,39,12.50
2012,07,06,01,40,12.50
2012,07,06,01,41,12.50
2012,07,06,01,42,12.50
2012,07,06,01,43,12.50
2012,07,06,01,44,12.50
2012,07,06,01,45,12.40
2012,07,06,01,46,12.40
2012,07,06,01,47,12.40
2012,07,06,01,48,12.40
2012,07,06,01,49,12.40
2012,07,06,01,50,12.40
2012,07,06,01,51,12.30
2012,07,06,01,52,12.30
2012,07,06,01,53,12.30
2012,07,06,01,54,12.30
2012,07,06,01,55,12.30
2012,07,06,01,56,12.30
2012,07,06,01,57,12.30
2012,07,06,01,58,12.30
2012,07,06,01,59,12.30
2012,07,06,02,00,12.30
2012,07,06,02,01,12.30
2012,07,06,02,02,12.30
2012,07,06,02,03,12.30
2012,07,06,02,04,12.30
2012,07,06,02,05,12.30
2012,07,06,02,06,12.30
2012,07,06,02,07,12.30
2012,07,06,02,08,12.30
2012,07,06,02,09,12.30
2012,07,06,02,10,12.30
2012,07,06,02,11,12.30
2012,07,06,02,12,12.30
2012,07,06,02,13,12.30
2012,07,06,02,14,12.30
2012,07,06,02,15,12.30
2012,07,06,02,16,12.30
2012,07,06,02,17,12.20
2012,07,06,02,18,12.20
2012,07,06,02,19,12.20
2012,07,06,02,20,12.20
2012,07,06,02,21,12.30
2012,07,06,02,22,12.30
2012,07,06,02,23,12.30
2012,07,06,02,24,12.30
2012,07,06,02,25,12.30
2012,07,06,02,26,12.30
2012,07,06,02,27,12.30
2012,07,06,02,28,12.30
2012,07,06,02,29,12.20
2012,07,06,02,30,12.20
2012,07,06,02,31,12.10
2012,07,06,02,32,12.00
2012,07,06,02,33,11.90
2012,07,06,02,34,11.90
2012,07,06,02,35,11.80
2012,07,06,02,36,11.80
2012,07,06,02,37,11.70
2012,07,06,02,38,11.70
2012,07,06,02,39,11.60
2012,07,06,02,40,11.60
2012,07,06,02,41,11.60
2012,07,06,02,42,11.50
2012,07,06,02,43,11.50
2012,07,06,02,44,11.40
2012,07,06,02,45,11.40
2012,07,06,02,46,11.40
2012,07,06,02,47,11.40
2012,07,06,02,48,11.30
2012,07,06,02,49,11.30
2012,07,06,02,50,11.30
2012,07,06,02,51,11.30
2012,07,06,02,52,11.20
2012,07,06,02,53,11.20
2012,07,06,02,54,11.20
2012,07,06,02,55,11.20
2012,07,06,02,56,11.20
2012,07,06,02,57,11.20
2012,07,06,02,58,11.20
2012,07,06,02,59,11.20
2012,07,06,03,00,11.20
2012,07,06,03,01,11.20
2012,07,06,03,02,11.20
2012,07,06,03,03,11.20
2012,07,06,03,04,11.10
2012,07,06,03,05,11.10
2012,07,06,03,06,11.10
2012,07,06,03,07,11.10
2012,07,06,03,08,11.10
2012,07,06,03,09,11.00
2012,07,06,03,10,11.00
2012,07,06,03,11,11.00
2012,07,06,03,12,11.00
2012,07,06,03,13,11.00
2012,07,06,03,14,11.00
2012,07,06,03,15,11.00
2012,07,06,03,16,11.00
2012,07,06,03,17,11.00
2012,07,06,03,18,10.90
2012,07,06,03,19,10.90
2012,07,06,03,20,10.90
2012,07,06,03,21,10.90
2012,07,06,03,22,10.90
2012,07,06,03,23,10.90
2012,07,06,03,24,10.90
2012,07,06,03,25,10.90
2012,07,06,03,26,10.80
2012,07,06,03,27,10.90
2012,07,06,03,28,10.90
2012,07,06,03,29,10.90
2012,07,06,03,30,10.90
2012,07,06,03,31,10.90
2012,07,06,03,32,11.00
2012,07,06,03,33,11.00
2012,07,06,03,34,10.90
2012,07,06,03,35,10.90
2012,07,06,03,36,10.90
2012,07,06,03,37,10.90
2012,07,06,03,38,10.90
2012,07,06,03,39,10.90
2012,07,06,03,40,10.90
2012,07,06,03,41,10.90
2012,07,06,03,42,10.90
2012,07,06,03,43,10.90
2012,07,06,03,44,10.90
2012,07,06,03,45,10.90
2012,07,06,03,46,10.90
2012,07,06,03,47,10.90
2012,07,06,03,48,10.90
2012,07,06,03,49,10.90
2012,07,06,03,50,10.90
2012,07,06,03,51,10.90
2012,07,06,03,52,10.80
2012,07,06,03,53,10.80
2012,07,06,03,54,10.80
2012,07,06,03,55,10.80
2012,07,06,03,56,10.80
2012,07,06,03,57,10.80
2012,07,06,03,58,10.80
2012,07,06,03,59,10.80
2012,07,06,04,00,10.80
2012,07,06,04,01,10.80
2012,07,06,04,02,10.80
2012,07,06,04,03,10.80
2012,07,06,04,04,10.80
2012,07,06,04,05,10.80
2012,07,06,04,06,10.80
2012,07,06,04,07,10.80
2012,07,06,04,08,10.80
2012,07,06,04,09,10.80
2012,07,06,04,10,10.80
2012,07,06,04,11,10.80
2012,07,06,04,12,10.80
2012,07,06,04,13,10.80
2012,07,06,04,14,10.80
2012,07,06,04,15,10.80
2012,07,06,04,16,10.80
2012,07,06,04,17,10.80
2012,07,06,04,18,10.80
2012,07,06,04,19,10.80
2012,07,06,04,20,10.80
2012,07,06,04,21,10.80
2012,07,06,04,22,10.80
2012,07,06,04,23,10.80
2012,07,06,04,24,10.80
2012,07,06,04,25,10.80
2012,07,06,04,26,10.80
2012,07,06,04,27,10.80
2012,07,06,04,28,10.80
2012,07,06,04,29,10.80
2012,07,06,04,30,10.80
2012,07,06,04,31,10.80
2012,07,06,04,32,10.80
2012,07,06,04,33,10.80
2012,07,06,04,34,10.80
2012,07,06,04,35,10.80
2012,07,06,04,36,10.90
2012,07,06,04,37,10.90
2012,07,06,04,38,10.90
2012,07,06,04,39,10.90
2012,07,06,04,40,10.90
2012,07,06,04,41,10.90
2012,07,06,04,42,10.90
2012,07,06,04,43,10.90
2012,07,06,04,44,10.90
2012,07,06,04,45,10.90
2012,07,06,04,46,10.90
2012,07,06,04,47,10.90
2012,07,06,04,48,10.80
2012,07,06,04,49,10.80
2012,07,06,04,50,10.80
2012,07,06,04,51,10.80
2012,07,06,04,52,10.80
2012,07,06,04,53,10.80
2012,07,06,04,54,10.80
2012,07,06,04,55,10.70
2012,07,06,04,56,10.70
2012,07,06,04,57,10.70
2012,07,06,04,58,10.70
2012,07,06,04,59,10.70
2012,07,06,05,00,10.60
2012,07,06,05,01,10.60
2012,07,06,05,02,10.60
2012,07,06,05,03,10.60
2012,07,06,05,04,10.60
2012,07,06,05,05,10.60
2012,07,06,05,06,10.60
2012,07,06,05,07,10.60
2012,07,06,05,08,10.50
2012,07,06,05,09,10.50
2012,07,06,05,10,10.50
2012,07,06,05,11,10.50
2012,07,06,05,12,10.40
2012,07,06,05,13,10.40
2012,07,06,05,14,10.40
2012,07,06,05,15,10.40
2012,07,06,05,16,10.40
2012,07,06,05,17,10.40
2012,07,06,05,18,10.40
2012,07,06,05,19,10.40
2012,07,06,05,20,10.40
2012,07,06,05,21,10.40
2012,07,06,05,22,10.40
2012,07,06,05,23,10.40
2012,07,06,05,24,10.40
2012,07,06,05,25,10.40
2012,07,06,05,26,10.40
2012,07,06,05,27,10.40
2012,07,06,05,28,10.40
2012,07,06,05,29,10.40
2012,07,06,05,30,10.40
2012,07,06,05,31,10.40
2012,07,06,05,32,10.40
2012,07,06,05,33,10.40
2012,07,06,05,34,10.40
2012,07,06,05,35,10.40
2012,07,06,05,36,10.50
2012,07,06,05,37,10.50
2012,07,06,05,38,10.50
2012,07,06,05,39,10.50
2012,07,06,05,40,10.50
2012,07,06,05,41,10.60
2012,07,06,05,42,10.60
2012,07,06,05,43,10.60
2012,07,06,05,44,10.60
2012,07,06,05,45,10.60
2012,07,06,05,46,10.60
2012,07,06,05,47,10.60
2012,07,06,05,48,10.60
2012,07,06,05,49,10.60
2012,07,06,05,50,10.70
2012,07,06,05,51,10.70
2012,07,06,05,52,10.70
2012,07,06,05,53,10.70
2012,07,06,05,54,10.70
2012,07,06,05,55,10.80
2012,07,06,05,56,10.80
2012,07,06,05,57,10.80
2012,07,06,05,58,10.80
2012,07,06,05,59,10.80
2012,07,06,06,00,10.80
2012,07,06,06,01,10.80
2012,07,06,06,02,10.80
2012,07,06,06,03,10.80
2012,07,06,06,04,10.90
2012,07,06,06,05,10.90
2012,07,06,06,06,10.90
2012,07,06,06,07,10.90
2012,07,06,06,08,10.90
2012,07,06,06,09,10.90
2012,07,06,06,10,10.90
2012,07,06,06,11,10.90
2012,07,06,06,12,10.90
2012,07,06,06,13,10.90
2012,07,06,06,14,10.90
2012,07,06,06,15,11.00
2012,07,06,06,16,11.00
2012,07,06,06,17,11.10
2012,07,06,06,18,11.10
2012,07,06,06,19,11.10
2012,07,06,06,20,11.20
2012,07,06,06,21,11.20
2012,07,06,06,22,11.20
2012,07,06,06,23,11.30
2012,07,06,06,24,11.30
2012,07,06,06,25,11.30
2012,07,06,06,26,11.30
2012,07,06,06,27,11.40
2012,07,06,06,28,11.40
2012,07,06,06,29,11.40
2012,07,06,06,30,11.50
2012,07,06,06,31,11.50
2012,07,06,06,32,11.50
2012,07,06,06,33,11.60
2012,07,06,06,34,11.60
2012,07,06,06,35,11.60
2012,07,06,06,36,11.70
2012,07,06,06,37,11.70
2012,07,06,06,38,11.80
2012,07,06,06,39,11.80
2012,07,06,06,40,11.80
2012,07,06,06,41,11.80
2012,07,06,06,42,11.80
2012,07,06,06,43,11.80
2012,07,06,06,44,11.80
2012,07,06,06,45,11.80
2012,07,06,06,46,11.80
2012,07,06,06,47,11.80
2012,07,06,06,48,11.80
2012,07,06,06,49,11.80
2012,07,06,06,50,11.80
2012,07,06,06,51,11.80
2012,07,06,06,52,11.90
2012,07,06,06,53,11.90
2012,07,06,06,54,11.90
2012,07,06,06,55,11.90
2012,07,06,06,56,11.90
2012,07,06,06,57,11.90
2012,07,06,06,58,11.90
2012,07,06,06,59,11.90
2012,07,06,07,00,12.00
2012,07,06,07,01,12.00
2012,07,06,07,02,12.00
2012,07,06,07,03,12.10
2012,07,06,07,04,12.10
2012,07,06,07,05,12.10
2012,07,06,07,06,12.20
2012,07,06,07,07,12.20
2012,07,06,07,08,12.20
2012,07,06,07,09,12.20
2012,07,06,07,10,12.20
2012,07,06,07,11,12.30
2012,07,06,07,12,12.30
2012,07,06,07,13,12.30
2012,07,06,07,14,12.40
2012,07,06,07,15,12.40
2012,07,06,07,16,12.40
2012,07,06,07,17,12.50
2012,07,06,07,18,12.50
2012,07,06,07,19,12.60
2012,07,06,07,20,12.70
2012,07,06,07,21,12.70
2012,07,06,07,22,12.80
2012,07,06,07,23,12.80
2012,07,06,07,24,12.80
2012,07,06,07,25,12.90
2012,07,06,07,26,13.00
2012,07,06,07,27,13.00
2012,07,06,07,28,13.10
2012,07,06,07,29,13.10
2012,07,06,07,30,13.10
2012,07,06,07,31,13.10
2012,07,06,07,32,13.20
2012,07,06,07,33,13.20
2012,07,06,07,34,13.20
2012,07,06,07,35,13.30
2012,07,06,07,36,13.30
2012,07,06,07,37,13.40
2012,07,06,07,38,13.40
2012,07,06,07,39,13.50
2012,07,06,07,40,13.60
2012,07,06,07,41,13.70
2012,07,06,07,42,13.80
2012,07,06,07,43,13.90
2012,07,06,07,44,14.10
2012,07,06,07,45,14.20
2012,07,06,07,46,14.30
2012,07,06,07,47,14.50
2012,07,06,07,48,14.60
2012,07,06,07,49,14.70
2012,07,06,07,50,14.80
2012,07,06,07,51,15.00
2012,07,06,07,52,15.00
2012,07,06,07,53,15.00
2012,07,06,07,54,15.10
2012,07,06,07,55,15.30
2012,07,06,07,56,15.40
2012,07,06,07,57,15.50
2012,07,06,07,58,15.60
2012,07,06,07,59,15.70
2012,07,06,08,00,15.70
2012,07,06,08,01,15.80
2012,07,06,08,02,15.90
2012,07,06,08,03,15.90
2012,07,06,08,04,16.00
2012,07,06,08,05,16.00
2012,07,06,08,06,16.10
2012,07,06,08,07,16.10
2012,07,06,08,08,16.20
2012,07,06,08,09,16.30
2012,07,06,08,10,16.30
2012,07,06,08,11,16.40
2012,07,06,08,12,16.40
2012,07,06,08,13,16.50
2012,07,06,08,14,16.60
2012,07,06,08,15,16.70
2012,07,06,08,16,16.80
2012,07,06,08,17,16.90
2012,07,06,08,18,17.00
2012,07,06,08,19,17.00
2012,07,06,08,20,17.10
2012,07,06,08,21,17.10
2012,07,06,08,22,17.10
2012,07,06,08,23,17.10
2012,07,06,08,24,17.20
2012,07,06,08,25,17.20
2012,07,06,08,26,17.20
2012,07,06,08,27,17.20
2012,07,06,08,28,17.30
2012,07,06,08,29,17.40
2012,07,06,08,30,17.40
2012,07,06,08,31,17.40
2012,07,06,08,32,17.40
2012,07,06,08,33,17.40
2012,07,06,08,34,17.40
2012,07,06,08,35,17.40
2012,07,06,08,36,17.40
2012,07,06,08,37,17.50
2012,07,06,08,38,17.50
2012,07,06,08,39,17.60
2012,07,06,08,40,17.60
2012,07,06,08,41,17.70
2012,07,06,08,42,17.70
2012,07,06,08,43,17.80
2012,07,06,08,44,17.80
2012,07,06,08,45,17.80
2012,07,06,08,46,17.80
2012,07,06,08,47,17.80
2012,07,06,08,48,17.90
2012,07,06,08,49,17.90
2012,07,06,08,50,17.90
2012,07,06,08,51,17.90
2012,07,06,08,52,17.90
2012,07,06,08,53,18.00
2012,07,06,08,54,18.00
2012,07,06,08,55,18.00
2012,07,06,08,56,18.10
2012,07,06,08,57,18.10
2012,07,06,08,58,18.10
2012,07,06,08,59,18.20
2012,07,06,09,00,18.20
2012,07,06,09,01,18.20
2012,07,06,09,02,18.30
2012,07,06,09,03,18.30
2012,07,06,09,04,18.30
2012,07,06,09,05,18.30
2012,07,06,09,06,18.30
2012,07,06,09,07,18.30
2012,07,06,09,08,18.30
2012,07,06,09,09,18.30
2012,07,06,09,10,18.30
2012,07,06,09,11,18.30
2012,07,06,09,12,18.30
2012,07,06,09,13,18.30
2012,07,06,09,14,18.30
2012,07,06,09,15,18.30
2012,07,06,09,16,18.20
2012,07,06,09,17,18.10
2012,07,06,09,18,18.10
2012,07,06,09,19,18.10
2012,07,06,09,20,18.10
2012,07,06,09,21,18.10
2012,07,06,09,22,18.20
2012,07,06,09,23,18.20
2012,07,06,09,24,18.30
2012,07,06,09,25,18.30
2012,07,06,09,26,18.30
2012,07,06,09,27,18.30
2012,07,06,09,28,18.40
2012,07,06,09,29,18.40
2012,07,06,09,30,18.50
2012,07,06,09,31,18.60
2012,07,06,09,32,18.50
2012,07,06,09,33,18.50
2012,07,06,09,34,18.40
2012,07,06,09,35,18.40
2012,07,06,09,36,18.40
2012,07,06,09,37,18.50
2012,07,06,09,38,18.50
2012,07,06,09,39,18.60
2012,07,06,09,40,18.60
2012,07,06,09,41,18.70
2012,07,06,09,42,18.70
2012,07,06,09,43,18.70
2012,07,06,09,44,18.70
2012,07,06,09,45,18.70
2012,07,06,09,46,18.80
2012,07,06,09,47,18.80
2012,07,06,09,48,18.80
2012,07,06,09,49,18.90
2012,07,06,09,50,18.90
2012,07,06,09,51,18.90
2012,07,06,09,52,18.70
2012,07,06,09,53,18.60
2012,07,06,09,54,18.30
2012,07,06,09,55,18.10
2012,07,06,09,56,17.90
2012,07,06,09,57,17.80
2012,07,06,09,58,17.80
2012,07,06,09,59,17.80
2012,07,06,10,00,17.80
2012,07,06,10,01,17.90
2012,07,06,10,02,17.90
2012,07,06,10,03,17.90
2012,07,06,10,04,17.90
2012,07,06,10,05,18.00
2012,07,06,10,06,18.00
2012,07,06,10,07,18.00
2012,07,06,10,08,18.00
2012,07,06,10,09,18.00
2012,07,06,10,10,18.10
2012,07,06,10,11,18.10
2012,07,06,10,12,18.20
2012,07,06,10,13,18.20
2012,07,06,10,14,18.20
2012,07,06,10,15,18.20
2012,07,06,10,16,18.30
2012,07,06,10,17,18.30
2012,07,06,10,18,18.40
2012,07,06,10,19,18.40
2012,07,06,10,20,18.50
2012,07,06,10,21,18.50
2012,07,06,10,22,18.30
2012,07,06,10,23,18.20
2012,07,06,10,24,18.20
2012,07,06,10,25,18.20
2012,07,06,10,26,18.20
2012,07,06,10,27,18.20
2012,07,06,10,28,18.20
2012,07,06,10,29,18.30
2012,07,06,10,30,18.20
2012,07,06,10,31,18.30
2012,07,06,10,32,18.30
2012,07,06,10,33,18.30
2012,07,06,10,34,18.30
2012,07,06,10,35,18.30
2012,07,06,10,36,18.40
2012,07,06,10,37,18.40
2012,07,06,10,38,18.50
2012,07,06,10,39,18.50
2012,07,06,10,40,18.40
2012,07,06,10,41,18.40
2012,07,06,10,42,18.40
2012,07,06,10,43,18.30
2012,07,06,10,44,18.30
2012,07,06,10,45,18.30
2012,07,06,10,46,18.40
2012,07,06,10,47,18.40
2012,07,06,10,48,18.40
2012,07,06,10,49,18.40
2012,07,06,10,50,18.40
2012,07,06,10,51,18.50
2012,07,06,10,52,18.60
2012,07,06,10,53,18.60
2012,07,06,10,54,18.60
2012,07,06,10,55,18.60
2012,07,06,10,56,18.60
2012,07,06,10,57,18.70
2012,07,06,10,58,18.60
2012,07,06,10,59,18.60
2012,07,06,11,00,18.60
2012,07,06,11,01,18.70
2012,07,06,11,02,18.70
2012,07,06,11,03,18.80
2012,07,06,11,04,18.80
2012,07,06,11,05,18.90
2012,07,06,11,06,19.00
2012,07,06,11,07,19.00
2012,07,06,11,08,19.00
2012,07,06,11,09,18.90
2012,07,06,11,10,18.90
2012,07,06,11,11,18.90
2012,07,06,11,12,18.80
2012,07,06,11,13,18.80
2012,07,06,11,14,18.90
2012,07,06,11,15,18.90
2012,07,06,11,16,18.90
2012,07,06,11,17,19.00
2012,07,06,11,18,19.00
2012,07,06,11,19,19.00
2012,07,06,11,20,18.90
2012,07,06,11,21,19.00
2012,07,06,11,22,18.90
2012,07,06,11,23,18.90
2012,07,06,11,24,18.80
2012,07,06,11,25,18.60
2012,07,06,11,26,18.60
2012,07,06,11,27,18.60
2012,07,06,11,28,18.60
2012,07,06,11,29,18.60
2012,07,06,11,30,18.60
2012,07,06,11,31,18.50
2012,07,06,11,32,18.50
2012,07,06,11,33,18.30
2012,07,06,11,34,18.30
2012,07,06,11,35,18.30
2012,07,06,11,36,18.30
2012,07,06,11,37,18.30
2012,07,06,11,38,18.30
2012,07,06,11,39,18.30
2012,07,06,11,40,18.30
2012,07,06,11,41,18.30
2012,07,06,11,42,18.20
2012,07,06,11,43,18.20
2012,07,06,11,44,18.10
2012,07,06,11,45,18.10
2012,07,06,11,46,18.10
2012,07,06,11,47,18.10
2012,07,06,11,48,18.10
2012,07,06,11,49,18.10
2012,07,06,11,50,18.10
2012,07,06,11,51,18.10
2012,07,06,11,52,18.00
2012,07,06,11,53,18.00
2012,07,06,11,54,18.00
2012,07,06,11,55,18.10
2012,07,06,11,56,18.10
2012,07,06,11,57,18.10
2012,07,06,11,58,18.20
2012,07,06,11,59,18.20
2012,07,06,12,00,18.20
2012,07,06,12,01,18.20
2012,07,06,12,02,18.20
2012,07,06,12,03,18.10
2012,07,06,12,04,18.00
2012,07,06,12,05,17.90
2012,07,06,12,06,17.80
2012,07,06,12,07,17.90
2012,07,06,12,08,17.90
2012,07,06,12,09,17.90
2012,07,06,12,10,17.70
2012,07,06,12,11,17.70
2012,07,06,12,12,17.70
2012,07,06,12,13,17.80
2012,07,06,12,14,17.80
2012,07,06,12,15,17.80
2012,07,06,12,16,17.90
2012,07,06,12,17,18.00
2012,07,06,12,18,18.10
2012,07,06,12,19,18.30
2012,07,06,12,20,18.30
2012,07,06,12,21,18.20
2012,07,06,12,22,18.20
2012,07,06,12,23,18.30
2012,07,06,12,24,18.30
2012,07,06,12,25,18.40
2012,07,06,12,26,18.40
2012,07,06,12,27,18.50
2012,07,06,12,28,18.60
2012,07,06,12,29,18.60
2012,07,06,12,30,18.70
2012,07,06,12,31,18.60
2012,07,06,12,32,18.60
2012,07,06,12,33,18.70
2012,07,06,12,34,18.60
2012,07,06,12,35,18.50
2012,07,06,12,36,18.40
2012,07,06,12,37,18.40
2012,07,06,12,38,18.50
2012,07,06,12,39,18.60
2012,07,06,12,40,18.70
2012,07,06,12,41,18.70
2012,07,06,12,42,18.80
2012,07,06,12,43,18.80
2012,07,06,12,44,18.80
2012,07,06,12,45,18.80
2012,07,06,12,46,18.70
2012,07,06,12,47,18.70
2012,07,06,12,48,18.70
2012,07,06,12,49,18.70
2012,07,06,12,50,18.60
2012,07,06,12,51,18.50
2012,07,06,12,52,18.50
2012,07,06,12,53,18.50
2012,07,06,12,54,18.60
2012,07,06,12,55,18.60
2012,07,06,12,56,18.60
2012,07,06,12,57,18.60
2012,07,06,12,58,18.50
2012,07,06,12,59,18.50
2012,07,06,13,00,18.50
2012,07,06,13,01,18.60
2012,07,06,13,02,18.60
2012,07,06,13,03,18.70
2012,07,06,13,04,18.70
2012,07,06,13,05,18.70
2012,07,06,13,06,18.70
2012,07,06,13,07,18.60
2012,07,06,13,08,18.60
2012,07,06,13,09,18.50
2012,07,06,13,10,18.40
2012,07,06,13,11,18.40
2012,07,06,13,12,18.50
2012,07,06,13,13,18.50
2012,07,06,13,14,18.60
2012,07,06,13,15,18.70
2012,07,06,13,16,18.70
2012,07,06,13,17,18.80
2012,07,06,13,18,18.90
2012,07,06,13,19,18.90
2012,07,06,13,20,18.80
2012,07,06,13,21,18.80
2012,07,06,13,22,18.80
2012,07,06,13,23,18.80
2012,07,06,13,24,18.80
2012,07,06,13,25,18.80
2012,07,06,13,26,18.90
2012,07,06,13,27,19.00
2012,07,06,13,28,19.20
2012,07,06,13,29,19.30
2012,07,06,13,30,19.50
2012,07,06,13,31,19.60
2012,07,06,13,32,19.60
2012,07,06,13,33,19.60
2012,07,06,13,34,19.70
2012,07,06,13,35,19.70
2012,07,06,13,36,19.70
2012,07,06,13,37,19.80
2012,07,06,13,38,19.80
2012,07,06,13,39,19.80
2012,07,06,13,40,19.80
2012,07,06,13,41,19.80
2012,07,06,13,42,19.90
2012,07,06,13,43,20.00
2012,07,06,13,44,20.10
2012,07,06,13,45,20.20
2012,07,06,13,46,20.10
2012,07,06,13,47,20.10
2012,07,06,13,48,20.10
2012,07,06,13,49,20.00
2012,07,06,13,50,19.90
2012,07,06,13,51,19.90
2012,07,06,13,52,20.00
2012,07,06,13,53,20.10
2012,07,06,13,54,20.10
2012,07,06,13,55,20.00
2012,07,06,13,56,20.00
2012,07,06,13,57,19.90
2012,07,06,13,58,19.90
2012,07,06,13,59,19.90
2012,07,06,14,00,19.80
2012,07,06,14,01,19.70
2012,07,06,14,02,19.70
2012,07,06,14,03,19.60
2012,07,06,14,04,19.50
2012,07,06,14,05,19.40
2012,07,06,14,06,19.40
2012,07,06,14,07,19.40
2012,07,06,14,08,19.50
2012,07,06,14,09,19.60
2012,07,06,14,10,19.60
2012,07,06,14,11,19.60
2012,07,06,14,12,19.70
2012,07,06,14,13,19.70
2012,07,06,14,14,19.80
2012,07,06,14,15,19.90
2012,07,06,14,16,19.90
2012,07,06,14,17,19.80
2012,07,06,14,18,19.90
2012,07,06,14,19,20.00
2012,07,06,14,20,20.00
2012,07,06,14,21,20.10
2012,07,06,14,22,20.10
2012,07,06,14,23,20.10
2012,07,06,14,24,20.10
2012,07,06,14,25,20.20
2012,07,06,14,26,20.20
2012,07,06,14,27,20.30
2012,07,06,14,28,20.40
2012,07,06,14,29,20.40
2012,07,06,14,30,20.40
2012,07,06,14,31,20.50
2012,07,06,14,32,20.60
2012,07,06,14,33,20.70
2012,07,06,14,34,20.90
2012,07,06,14,35,21.10
2012,07,06,14,36,21.30
2012,07,06,14,37,21.30
2012,07,06,14,38,21.20
2012,07,06,14,39,21.30
2012,07,06,14,40,21.30
2012,07,06,14,41,21.30
2012,07,06,14,42,21.30
2012,07,06,14,43,21.30
2012,07,06,14,44,21.30
2012,07,06,14,45,21.30
2012,07,06,14,46,21.30
2012,07,06,14,47,21.30
2012,07,06,14,48,21.30
2012,07,06,14,49,21.40
2012,07,06,14,50,21.40
2012,07,06,14,51,21.50
2012,07,06,14,52,21.50
2012,07,06,14,53,21.60
2012,07,06,14,54,21.60
2012,07,06,14,55,21.50
2012,07,06,14,56,21.50
2012,07,06,14,57,21.40
2012,07,06,14,58,21.40
2012,07,06,14,59,21.40
2012,07,06,15,00,21.50
2012,07,06,15,01,21.60
2012,07,06,15,02,21.60
2012,07,06,15,03,21.60
2012,07,06,15,04,21.80
2012,07,06,15,05,21.80
2012,07,06,15,06,21.80
2012,07,06,15,07,21.90
2012,07,06,15,08,21.90
2012,07,06,15,09,21.90
2012,07,06,15,10,21.90
2012,07,06,15,11,21.90
2012,07,06,15,12,22.00
2012,07,06,15,13,22.00
2012,07,06,15,14,22.10
2012,07,06,15,15,22.10
2012,07,06,15,16,22.00
2012,07,06,15,17,21.90
2012,07,06,15,18,21.70
2012,07,06,15,19,21.60
2012,07,06,15,20,21.50
2012,07,06,15,21,21.30
2012,07,06,15,22,21.10
2012,07,06,15,23,21.00
2012,07,06,15,24,20.80
2012,07,06,15,25,20.70
2012,07,06,15,26,20.70
2012,07,06,15,27,20.60
2012,07,06,15,28,20.50
2012,07,06,15,29,20.40
2012,07,06,15,30,20.40
2012,07,06,15,31,20.30
2012,07,06,15,32,20.20
2012,07,06,15,33,20.20
2012,07,06,15,34,20.20
2012,07,06,15,35,20.10
2012,07,06,15,36,20.10
2012,07,06,15,37,20.10
2012,07,06,15,38,20.10
2012,07,06,15,39,20.20
2012,07,06,15,40,20.30
2012,07,06,15,41,20.40
2012,07,06,15,42,20.50
2012,07,06,15,43,20.60
2012,07,06,15,44,20.70
2012,07,06,15,45,20.80
2012,07,06,15,46,20.80
2012,07,06,15,47,20.90
2012,07,06,15,48,20.90
2012,07,06,15,49,20.90
2012,07,06,15,50,21.00
2012,07,06,15,51,21.10
2012,07,06,15,52,21.20
2012,07,06,15,53,21.30
2012,07,06,15,54,21.40
2012,07,06,15,55,21.50
2012,07,06,15,56,21.50
2012,07,06,15,57,21.50
2012,07,06,15,58,21.60
2012,07,06,15,59,21.70
2012,07,06,16,00,21.80
2012,07,06,16,01,21.90
2012,07,06,16,02,22.10
2012,07,06,16,03,22.30
2012,07,06,16,04,22.40
2012,07,06,16,05,22.60
2012,07,06,16,06,22.60
2012,07,06,16,07,22.70
2012,07,06,16,08,22.80
2012,07,06,16,09,22.80
2012,07,06,16,10,22.60
2012,07,06,16,11,22.50
2012,07,06,16,12,22.30
2012,07,06,16,13,22.10
2012,07,06,16,14,22.00
2012,07,06,16,15,21.90
2012,07,06,16,16,21.90
2012,07,06,16,17,21.90
2012,07,06,16,18,21.90
2012,07,06,16,19,21.90
2012,07,06,16,20,21.90
2012,07,06,16,21,21.90
2012,07,06,16,22,21.90
2012,07,06,16,23,21.90
2012,07,06,16,24,21.90
2012,07,06,16,25,21.90
2012,07,06,16,26,21.90
2012,07,06,16,27,21.90
2012,07,06,16,28,21.90
2012,07,06,16,29,21.90
2012,07,06,16,30,22.00
2012,07,06,16,31,22.10
2012,07,06,16,32,22.20
2012,07,06,16,33,22.30
2012,07,06,16,34,22.30
2012,07,06,16,35,22.30
2012,07,06,16,36,22.30
2012,07,06,16,37,22.30
2012,07,06,16,38,22.30
2012,07,06,16,39,22.20
2012,07,06,16,40,22.20
2012,07,06,16,41,22.20
2012,07,06,16,42,22.20
2012,07,06,16,43,22.30
2012,07,06,16,44,22.30
2012,07,06,16,45,22.40
2012,07,06,16,46,22.60
2012,07,06,16,47,22.70
2012,07,06,16,48,22.90
2012,07,06,16,49,23.00
2012,07,06,16,50,23.20
2012,07,06,16,51,23.30
2012,07,06,16,52,23.50
2012,07,06,16,53,23.60
2012,07,06,16,54,23.80
2012,07,06,16,55,24.00
2012,07,06,16,56,24.20
2012,07,06,16,57,24.30
2012,07,06,16,58,24.40
2012,07,06,16,59,24.50
2012,07,06,17,00,24.60
2012,07,06,17,01,24.60
2012,07,06,17,02,24.60
2012,07,06,17,03,24.70
2012,07,06,17,04,24.70
2012,07,06,17,05,24.60
2012,07,06,17,06,24.60
2012,07,06,17,07,24.60
2012,07,06,17,08,24.50
2012,07,06,17,09,24.40
2012,07,06,17,10,24.30
2012,07,06,17,11,24.10
2012,07,06,17,12,24.00
2012,07,06,17,13,23.80
2012,07,06,17,14,23.70
2012,07,06,17,15,23.60
2012,07,06,17,16,23.60
2012,07,06,17,17,23.50
2012,07,06,17,18,23.60
2012,07,06,17,19,23.60